HULIANWANG DIGUI-109 (66919 NORAD) Tracking and Keplerian Element Data

This shows tracking and keplerian element data for the satellite.

Feedback or suggestion? Click here.




ElementValue
Catalog66919
NameHULIANWANG DIGUI-109
Epoch Orbit197
Epoch Day354.31325247
Epoch Year2025
RAAN86.3711
Inclination50.0069
Eccentricity0.0007872
Argument of Perigee317.7068
Mean Anonmoly42.3228
Mean Motion14.03725518
Decay Rate-1.67E-06
L11 66919U 25285E 25354.31325247 -.00000167 00000+0 -10067-4 0 9992
L22 66919 50.0069 86.3711 0007872 317.7068 42.3228 14.03725518 1979



Live tracking and technical data element details for HULIANWANG DIGUI-109 (NORAD 66919). HULIANWANG DIGUI-109 can be tracked NOW for your location showing map with azimuth and elevation plus other details from your city location.







IsCatalogInMostPopularTable: catalog: 66919, numindb: 17
Update: records affected: 1



GetName: 66919 HULIANWANG DIGUI-109

Hit Count: updated at: Tue, 21 Apr 2026 20:24:01 GMT